Вернуться в каталог

STARLINK-6340

АктивенСвязьVLEO
NORAD 57361·PAYLOAD·🇺🇸 United States

Запущен Jul 16, 2023 с Cape Canaveral Space Force Station

Loading…

Ближайшие Пролёты (ближайшие 24 часа)

TLE

СвежийSource: CelesTrak SupGP

Эпоха: Sep 15, 2026, 02:55 UTC

1 57361C 23099AK  26258.12201389 -.00027003  00000+0 -97829-3 0  2583
2 57361  43.0029 252.2021 0001168 286.6824 179.2723 15.27584452    13

Отслеживайте STARLINK-6340 в реальном времени с AllMySat

Download on the App Store